Weather History for Robinson, IL

Change the Weather History Date:

Tuesday, January 1, 2013

  Actual Average (KLWV) Record (KLWV)
Temperature  
Mean Temperature 26 °F 31 °F  
Max Temperature 34 °F 39 °F 59 °F (2000)
Min Temperature 17 °F 23 °F 1 °F (1999)
Degree Days  
Heating Degree Days 40 34  
Month to date heating degree days 34  
Since 1 July heating degree days 1833  
Cooling Degree Days 0 0  
Month to date cooling degree days 0  
Year to date cooling degree days 0  
Moisture  
Dew Point 22 °F    
Average Humidity 84    
Maximum Humidity 100    
Minimum Humidity 74    
Precipitation  
Precipitation 0.01 in 0.10 in 1.49 in (1979)
Month to date precipitation 0.10  
Year to date precipitation 0.10  
Sea Level Pressure  
Sea Level Pressure 30.17 in    
Wind  
Wind Speed 6 mph (NW)    
Max Wind Speed 12 mph    
Max Gust Speed -    
Visibility 7 miles    
Events Rain , Snow    
T = Trace of Precipitation, MM = Missing Value Source: NWS Daily Summary

Daily Weather History Graph

Daily Weather History Graph

Search for Another Location

Airport:

Trip Planner

Search our weather history database for the weather conditions in past years. The results will help you decide how hot, cold, wet, or windy it might be!

Date:

Astronomy

Jan. 01, 2013 Rise Set
Actual Time 7:09 AM CST 4:39 PM CST
Civil Twilight 6:39 AM CST 5:09 PM CST
Nautical Twilight 6:06 AM CST 5:42 PM CST
Astronomical Twilight 5:33 AM CST 6:14 PM CST
Moon 9:07 PM CST (1/1) 9:23 AM CST (1/1)
Length of Visible Light 10h 29m
Length of Day
9h 29m
Waning Gibbous, 83% of the Moon is Illuminated
Jan 1
Waning Gibbous
Jan 4
Last Quarter
Jan 11
New
Jan 18
First Quarter
Jan 26
Full

Hourly Weather History & Observations

Time (CST) Temp. Windchill Dew Point Humidity Pressure Visibility Wind Dir Wind Speed Gust Speed Precip Events Conditions
12:15 AM 33.8 °F 30.8 °F 33.8 °F 100% 30.09 in 3.0 mi WNW 3.5 mph - N/A   Overcast
12:35 AM 33.8 °F 30.8 °F 33.8 °F 100% 30.09 in 3.0 mi West 3.5 mph - N/A   Overcast
12:55 AM 33.8 °F 30.8 °F 33.8 °F 100% 30.10 in 4.0 mi West 3.5 mph - N/A   Overcast
1:15 AM 33.8 °F 30.8 °F 33.8 °F 100% 30.09 in 2.5 mi WNW 3.5 mph - N/A Snow Light Snow
1:35 AM 33.8 °F 30.8 °F 33.8 °F 100% 30.09 in 2.5 mi NW 3.5 mph - N/A   Light Drizzle
1:55 AM 34.0 °F 31.0 °F 33.8 °F 99% 30.09 in 2.5 mi WNW 3.5 mph - N/A Rain Light Rain
2:15 AM 34.0 °F 28.0 °F 33.8 °F 99% 30.11 in 3.0 mi WNW 6.9 mph - N/A   Overcast
2:35 AM 33.1 °F 26.9 °F 32.9 °F 99% 30.10 in 4.0 mi North 6.9 mph - N/A   Overcast
2:55 AM 32.2 °F 24.4 °F 32.0 °F 99% 30.10 in 3.0 mi NNW 9.2 mph - N/A   Overcast
3:15 AM 32.0 °F 24.8 °F 31.5 °F 98% 30.12 in 4.0 mi NW 8.1 mph - N/A   Overcast
3:35 AM 31.6 °F 23.1 °F 30.2 °F 94% 30.11 in 5.0 mi NW 10.4 mph - N/A   Overcast
3:55 AM 30.7 °F 22.6 °F 28.6 °F 92% 30.12 in 7.0 mi NW 9.2 mph - N/A   Overcast
4:15 AM 30.2 °F 22.6 °F 28.0 °F 92% 30.13 in 7.0 mi NW 8.1 mph - N/A   Overcast
4:35 AM 29.3 °F 22.3 °F 27.5 °F 93% 30.13 in 7.0 mi NW 6.9 mph - N/A   Overcast
4:55 AM 29.3 °F 22.3 °F 26.6 °F 90% 30.13 in 7.0 mi NW 6.9 mph - N/A   Overcast
5:15 AM 28.9 °F 21.1 °F 26.1 °F 89% 30.14 in 7.0 mi NW 8.1 mph - N/A   Overcast
5:35 AM 28.6 °F 21.5 °F 25.3 °F 88% 30.14 in 10.0 mi NW 6.9 mph - N/A   Overcast
5:55 AM 28.4 °F 23.3 °F 25.2 °F 88% 30.14 in 10.0 mi NW 4.6 mph - N/A   Overcast
6:15 AM 28.0 °F 21.7 °F 25.7 °F 91% 30.15 in 7.0 mi NW 5.8 mph - N/A   Overcast
6:35 AM 27.5 °F 21.1 °F 25.2 °F 91% 30.15 in 7.0 mi WNW 5.8 mph - N/A   Overcast
6:55 AM 27.1 °F 18.9 °F 24.4 °F 90% 30.14 in 7.0 mi NW 8.1 mph - N/A   Overcast
7:15 AM 26.6 °F 19.1 °F 24.3 °F 91% 30.11 in 7.0 mi NNW 6.9 mph - N/A   Overcast
7:35 AM 26.6 °F 18.2 °F 23.5 °F 88% 30.15 in 7.0 mi NNW 8.1 mph - N/A   Mostly Cloudy
7:55 AM 26.6 °F 19.1 °F 23.5 °F 88% 30.15 in 7.0 mi NNW 6.9 mph - N/A   Mostly Cloudy
8:15 AM 26.6 °F 18.2 °F 23.5 °F 88% 30.16 in 5.0 mi NW 8.1 mph - N/A   Overcast
8:35 AM 27.3 °F 18.4 °F 23.9 °F 87% 30.19 in 5.0 mi NW 9.2 mph - N/A   Overcast
8:55 AM 27.3 °F 17.7 °F 23.5 °F 86% 30.19 in 5.0 mi NW 10.4 mph - N/A   Overcast
9:15 AM 27.3 °F 19.9 °F 23.7 °F 86% 30.19 in 4.0 mi NNW 6.9 mph - N/A   Overcast
9:35 AM 27.5 °F 19.3 °F 23.9 °F 86% 30.19 in 4.0 mi NNW 8.1 mph - N/A   Overcast
9:55 AM 27.5 °F 18.0 °F 23.9 °F 86% 30.19 in 4.0 mi NNW 10.4 mph - N/A   Overcast
10:15 AM 28.2 °F 20.2 °F 24.3 °F 85% 30.20 in 4.0 mi NNW 8.1 mph - N/A   Overcast
10:35 AM 28.2 °F 21.0 °F 23.0 °F 81% 30.20 in 4.0 mi NNW 6.9 mph - N/A   Haze
10:55 AM 28.4 °F 18.5 °F 23.4 °F 81% 30.15 in 4.0 mi North 11.5 mph - N/A   Haze
11:15 AM 28.4 °F 21.2 °F 23.0 °F 80% 30.16 in 5.0 mi NNW 6.9 mph - N/A   Haze
11:35 AM 28.8 °F 21.7 °F 23.0 °F 79% 30.17 in 5.0 mi NW 6.9 mph - N/A   Haze
11:55 AM 28.8 °F 20.9 °F 22.8 °F 78% 30.17 in 5.0 mi NNW 8.1 mph - N/A   Haze
12:15 PM 28.6 °F 21.5 °F 22.5 °F 78% 30.17 in 5.0 mi NW 6.9 mph - N/A   Haze
12:35 PM 28.9 °F 21.1 °F 22.1 °F 76% 30.18 in 7.0 mi NW 8.1 mph - N/A   Scattered Clouds
12:55 PM 28.8 °F 20.9 °F 22.1 °F 76% 30.18 in 7.0 mi WNW 8.1 mph - N/A   Mostly Cloudy
1:15 PM 27.9 °F 19.8 °F 21.4 °F 77% 30.18 in 7.0 mi West 8.1 mph - N/A   Overcast
1:35 PM 27.7 °F 19.6 °F 21.2 °F 77% 30.16 in 7.0 mi WNW 8.1 mph - N/A   Overcast
1:55 PM 27.5 °F 20.2 °F 21.0 °F 77% 30.15 in 7.0 mi WNW 6.9 mph - N/A   Overcast
2:15 PM 27.5 °F 19.3 °F 20.5 °F 75% 30.16 in 7.0 mi NW 8.1 mph - N/A   Overcast
2:35 PM 27.3 °F 19.1 °F 20.5 °F 75% 30.16 in 10.0 mi NW 8.1 mph - N/A   Overcast
2:55 PM 27.1 °F 18.9 °F 20.7 °F 77% 30.16 in 10.0 mi WNW 8.1 mph - N/A   Overcast
3:15 PM 27.0 °F 20.5 °F 20.5 °F 77% 30.17 in 10.0 mi NW 5.8 mph - N/A   Overcast
3:35 PM 26.6 °F 20.0 °F 20.1 °F 77% 30.17 in 10.0 mi WNW 5.8 mph - N/A   Overcast
3:55 PM 26.6 °F 19.1 °F 20.3 °F 77% 30.18 in 10.0 mi WNW 6.9 mph - N/A   Overcast
4:15 PM 26.4 °F 19.8 °F 20.5 °F 78% 30.17 in 10.0 mi NW 5.8 mph - N/A   Overcast
4:35 PM 26.2 °F 17.1 °F 20.3 °F 78% 30.18 in 10.0 mi WNW 9.2 mph - N/A   Overcast
4:55 PM 26.1 °F 16.8 °F 19.9 °F 78% 30.18 in 10.0 mi NW 9.2 mph - N/A   Overcast
5:15 PM 25.9 °F 15.3 °F 19.4 °F 76% 30.18 in 10.0 mi NW 11.5 mph - N/A   Overcast
5:35 PM 25.7 °F 17.1 °F 19.2 °F 76% 30.18 in 10.0 mi WNW 8.1 mph - N/A   Overcast
5:55 PM 25.5 °F 16.2 °F 19.0 °F 76% 30.20 in 10.0 mi NW 9.2 mph - N/A   Overcast
6:15 PM 25.5 °F 16.2 °F 19.2 °F 77% 30.22 in 10.0 mi WNW 9.2 mph - N/A   Overcast
6:35 PM 25.3 °F 16.0 °F 19.0 °F 77% 30.21 in 10.0 mi WNW 9.2 mph - N/A   Overcast
6:55 PM 25.2 °F 15.7 °F 19.0 °F 78% 30.23 in 10.0 mi WNW 9.2 mph - N/A   Overcast
7:15 PM 24.8 °F 16.1 °F 18.9 °F 78% 30.22 in 10.0 mi WNW 8.1 mph - N/A   Overcast
7:35 PM 24.3 °F 15.4 °F 18.5 °F 79% 30.23 in 10.0 mi WNW 8.1 mph - N/A   Overcast
7:55 PM 23.4 °F 13.5 °F 17.2 °F 77% 30.23 in 10.0 mi WNW 9.2 mph - N/A   Mostly Cloudy
8:15 PM 22.5 °F 12.4 °F 16.5 °F 78% 30.23 in 10.0 mi WNW 9.2 mph - N/A   Scattered Clouds
8:35 PM 21.7 °F 12.3 °F 15.8 °F 78% 30.24 in 10.0 mi WNW 8.1 mph - N/A   Scattered Clouds
8:55 PM 21.0 °F 12.4 °F 14.9 °F 77% 30.23 in 10.0 mi WNW 6.9 mph - N/A   Clear
9:15 PM 20.3 °F 13.8 °F 14.0 °F 77% 30.23 in 10.0 mi WNW 4.6 mph - N/A   Clear
9:35 PM 19.9 °F 12.1 °F 13.3 °F 75% 30.24 in 10.0 mi WNW 5.8 mph - N/A   Clear
9:55 PM 19.4 °F 12.8 °F 12.9 °F 76% 30.24 in 10.0 mi WNW 4.6 mph - N/A   Clear
10:15 PM 19.0 °F 11.1 °F 12.2 °F 75% 30.23 in 10.0 mi WNW 5.8 mph - N/A   Clear
10:35 PM 19.0 °F 11.1 °F 11.8 °F 74% 30.25 in 10.0 mi WNW 5.8 mph - N/A   Clear
10:55 PM 18.3 °F 13.1 °F 11.7 °F 75% 30.24 in 10.0 mi WNW 3.5 mph - N/A   Clear
11:15 PM 17.4 °F - 11.1 °F 76% 30.24 in 10.0 mi Calm Calm - N/A   Clear
11:35 PM 17.6 °F 12.3 °F 10.9 °F 75% 30.24 in 10.0 mi WNW 3.5 mph - N/A   Clear
11:55 PM 17.2 °F 10.2 °F 10.9 °F 76% 30.24 in 10.0 mi WNW 4.6 mph - N/A   Clear